Tracking 27079 objects as of 23-Mar-2023
HD Live streaming from Space Station
objects crossing your sky now

LEASAT 5

Track LEASAT 5 now!
LEASAT 5 is classified as:


NORAD ID: 20410
Int'l Code: 1990-002B
Perigee: 35,954.1 km
Apogee: 36,016.0 km
Inclination: 11.4 °
Period: 1,445.9 minutes
Semi major axis: 42356 km
RCS: 12.5892 m2 (large)
Launch date: January 9, 1990
Source: United States (US)
Launch site: AIR FORCE EASTERN TEST RANGE (AFETR)

Ultra High Frequency (UHF) satellite communications services to Australia; leased at end of use by U.S. Navy to Royal Australian Navy.
Your satellite tracking list
Your tracking list is empty




NASA's NSSDC Master Catalog

Two Line Element Set (TLE):
1 20410U 90002B   23081.51470198  .00000071  00000-0  00000+0 0  9994
2 20410  11.4011 357.9920 0007299  56.4554 172.7434  0.99593216106636
Source of the keplerian elements: AFSPC